Regional Weather Roundup
Issued by NWS

Home | Current Version | Previous Version | Text Only | Print | Product List | Glossary On
Versions: 1 2 3 4 5 6 7 8 9 10 11 12 13 14 15 16 17 18 19 20 21 22 23 24 25 26 27 28 29 30 31 32 33 34 35 36 37 38 39 40 41 42 43 44 45 46 47 48 49
000
ASUS46 KSEW 311710
RWRWA

WASHINGTON REGIONAL WEATHER ROUNDUP
NATIONAL WEATHER SERVICE SEATTLE WA
1000 AM PDT MON AUG 31 2015

NOTE:"FAIR" INDICATES FEW OR NO CLOUDS BELOW 12,000 FEET WITH NO
SIGNIFICANT WEATHER AND/OR OBSTRUCTIONS TO VISIBILITY.

WAZ505-507>509-311800-
SEATTLE, TACOMA, EVERETT, AND VICINITY

CITY           SKY/WX    TMP DP  RH WIND       PRES   REMARKS
EVERETT        CLOUDY    61  52  72 S24G33    29.93R
BOEING FIELD   CLOUDY    65  54  67 S8        29.98R
RENTON         CLOUDY    64  52  64 S16G25    29.98R
SEATAC AIRPORT CLOUDY    62  53  72 SW15G24   29.99R
JBLM-MCCHORD   CLOUDY    64  53  67 S17G24    29.98S
PUYALLUP       CLOUDY    64  54  68 SW8G16    30.00S
BREMERTON      CLOUDY    57  55  94 S14G24    29.99S
JBLM-FT LEWIS  CLOUDY    64  54  68 S15       29.98S
TACOMA NARROWS CLOUDY    61  53  75 S17G23    29.99R
$$

WAZ001-503-506-510-514-515-311800-
NORTH INTERIOR

CITY           SKY/WX    TMP DP  RH WIND       PRES   REMARKS
BELLINGHAM     LGT RAIN  61  55  82 SE17G29     N/A
FRIDAY HARBOR  CLOUDY    58  55  90 SE8       29.89F
EASTSOUND      CLOUDY    59  55  88 S8        29.86F
PORT ANGELES   CLOUDY    61  55  81 SE5       29.87F
PORT TOWNSEND  PTSUNNY   61  57  88 VRB3      29.88F
NAS WHIDBEY    CLOUDY    61  56  83 SE20G26   29.93F
ARLINGTON      CLOUDY    61  50  67 SE14G24   29.94R
BURLINGTON     CLOUDY    59  55  88 SE10      29.92S
$$

WAZ020-022-039-040-504-511-512-311800-
SOUTHWEST INTERIOR

CITY           SKY/WX    TMP DP  RH WIND       PRES   REMARKS
SHELTON        LGT RAIN  60  58  92 S12       29.95S FOG
OLYMPIA        LGT RAIN  59  55  87 SW7G16    30.01R FOG
CHEHALIS       CLOUDY    61  57  88 S13G21    30.01S
KELSO          NOT AVBL
VANCOUVER      CLOUDY    64  52  64 SE5       30.05F
SCAPPOOSE, OR  CLOUDY    64  55  72 SE6       30.04F
PORTLAND, OR   PTSUNNY   65  54  67 S10       30.06S
$$

WAZ021-516-517-311800-
WASHINGTON COAST

CITY           SKY/WX    TMP DP  RH WIND       PRES   REMARKS
FORKS          RAIN      60  59  96 SW10      29.91R VSB<1/4
HOQUIAM        CLOUDY    61  58  90 S16       29.98R FOG
ASTORIA, OR    CLOUDY    64  60  87 S10G22    30.00S
$$

WAZ019-023-024-040-518-519-311800-
CASCADE MOUNTAINS AND COLUMBIA GORGE

CITY           SKY/WX    TMP DP  RH WIND       PRES   REMARKS
TROUTDALE, OR  CLOUDY    66  54  65 E3        30.06F
THE DALLES, OR MOSUNNY   66  49  54 VRB5      30.04F
$$

WAZ026-027-041>044-520-521-311800-
EAST SLOPES

CITY           SKY/WX    TMP DP  RH WIND       PRES   REMARKS
OMAK           CLOUDY    61  42  49 SE21      29.95R
WENATCHEE      CLOUDY    62  43  49 CALM      29.95S
ELLENSBURG     CLOUDY    61  45  55 W6        30.00S
YAKIMA         CLOUDY    68  46  45 S6        30.00F
$$

WAZ028-034-035-311800-
COLUMBIA BASIN

CITY           SKY/WX    TMP DP  RH WIND       PRES   REMARKS
EPHRATA        PTSUNNY   68  44  42 SW18      29.97S
MOSES LAKE     PTSUNNY   66  46  48 S13       29.99F
PASCO          SUNNY     69  48  47 SW15      30.03S
HERMISTON, OR  SUNNY     69  46  43 SW10G22   30.03F
$$

WAZ036>038-311800-
NORTHEAST WASHINGTON

CITY           SKY/WX    TMP DP  RH WIND       PRES   REMARKS
SPOKANE GEIGER PTSUNNY   58  44  60 S14       30.05R
SPOKANE FELTS  PTSUNNY   61  46  57 S12       30.06R
FAIRCHILD AFB  PTSUNNY   57  44  62 S15       30.04S
COEURDALENE,ID CLOUDY    61  46  59 SW13G21   30.06R
DEER PARK      PTSUNNY   57  46  66 S14       30.06R
$$

WAZ029>033-311800-
SOUTHEAST WASHINGTON

CITY           SKY/WX    TMP DP  RH WIND       PRES   REMARKS
PULLMAN        PTSUNNY   62  43  49 S8        30.09R
LEWISTON, ID   MOSUNNY   66  47  50 NE3       30.05S
WALLA WALLA    SUNNY     68  45  43 SW15      30.05S
PENDLETON, OR  MOSUNNY   67  44  43 W13G20    30.05F
$$



USA.gov is the U.S. government's official web portal to all federal, state and local government web resources and services.